Location: �clusier
(49.9361°N, 2.7869°E)
Time: 07:54:26
(UTC+00:00)

ATLAS CENTAUR R/B - Pass Details

Date: 23 October 2021
Orbit: 452 x 688 km, 64.7° (Epoch: 06 December)

Event Time Altitude Azimuth Distance (km) Brightness Sun altitude
Exits shadow 03:51:52 32° 359° (N) 1,011 2.7 -25.0°
Drops below altitude 10° 03:54:48 10° 31° (NNE) 1,954 4.6 -24.5°
Sets 03:57:17 0° 39° (NE) 2,905 5.8 -24.1°
